Weather History for KIAG - November, 2012

Change the Weather History Date:

Saturday, November 3, 2012

  Actual Average Record
Temperature  
Mean Temperature 39 °F -  
Max Temperature 42 °F 50 °F 67 °F (1990)
Min Temperature 37 °F 35 °F 25 °F (1989)
Degree Days  
Heating Degree Days 26    
Moisture  
Dew Point 29 °F    
Average Humidity 71    
Maximum Humidity 76    
Minimum Humidity 60    
Precipitation  
Precipitation 0.00 in - - ()
Sea Level Pressure  
Sea Level Pressure 30.04 in    
Wind  
Wind Speed 13 mph (NW)    
Max Wind Speed 18 mph    
Max Gust Speed 23 mph    
Visibility 10 miles    
Events Rain    
Averages and records for this station are not official NWS values.
T = Trace of Precipitation, MM = Missing Value Source: NWS Daily Summary

Daily Weather History Graph

Daily Weather History Graph

Search for Another Location

Airport or City:

Trip Planner

Search our weather history database for the weather conditions in past years. The results will help you decide how hot, cold, wet, or windy it might be!

Date:

Astronomy

Nov. 03, 2012 Rise Set
Actual Time 7:53 AM EDT 6:04 PM EDT
Civil Twilight 7:23 AM EDT 6:34 PM EDT
Nautical Twilight 6:50 AM EDT 7:07 PM EDT
Astronomical Twilight 6:16 AM EDT 7:40 PM EDT
Moon 9:41 PM EDT (11/3) 11:59 AM EDT (11/3)
Length of Visible Light 11h 10m
Length of Day
10h 10m
Waning Gibbous, 80% of the Moon is Illuminated
Nov 3
Waning Gibbous
Nov 6
Last Quarter
Nov 13
New
Nov 20
First Quarter
Nov 28
Full

Hourly Weather History & Observations

Time (EDT) Temp. Windchill Dew Point Humidity Pressure Visibility Wind Dir Wind Speed Gust Speed Precip Events Conditions
12:53 AM 37.9 °F 30.5 °F 30.9 °F 76% 29.95 in 10.0 mi WNW 11.5 mph - N/A   Overcast
1:22 AM 37.4 °F 29.3 °F 30.2 °F 75% 29.92 in 10.0 mi WNW 12.7 mph - N/A   Overcast
1:39 AM 37.4 °F 29.8 °F 30.2 °F 75% 29.92 in 10.0 mi WNW 11.5 mph - N/A   Overcast
1:53 AM 37.9 °F 30.9 °F 30.9 °F 76% 29.95 in 10.0 mi WNW 10.4 mph - N/A   Overcast
2:53 AM 37.9 °F 29.2 °F 30.9 °F 76% 29.96 in 10.0 mi NW 15.0 mph - N/A   Overcast
3:53 AM 37.9 °F 30.0 °F 30.9 °F 76% 29.97 in 10.0 mi NW 12.7 mph - N/A   Overcast
4:44 AM 37.4 °F 29.3 °F 30.2 °F 75% 29.94 in 10.0 mi NW 12.7 mph - N/A   Overcast
4:53 AM 37.9 °F 30.9 °F 30.0 °F 73% 29.98 in 10.0 mi NW 10.4 mph - N/A   Overcast
5:53 AM 37.0 °F 28.1 °F 30.0 °F 76% 30.00 in 10.0 mi NW 15.0 mph - N/A   Overcast
6:18 AM 37.4 °F 28.9 °F 30.2 °F 75% 29.97 in 10.0 mi WNW 13.8 mph - N/A   Mostly Cloudy
6:53 AM 37.0 °F 28.5 °F 30.0 °F 76% 30.02 in 10.0 mi WNW 13.8 mph - N/A   Overcast
7:08 AM 37.4 °F 29.3 °F 30.2 °F 75% 29.98 in 10.0 mi NW 12.7 mph - N/A   Overcast
7:53 AM 37.0 °F 28.1 °F 30.0 °F 76% 30.04 in 10.0 mi NW 15.0 mph - N/A   Overcast
8:53 AM 37.0 °F 29.3 °F 30.0 °F 76% 30.05 in 10.0 mi NNW 11.5 mph - N/A   Mostly Cloudy
9:53 AM 37.9 °F 28.2 °F 28.9 °F 70% 30.07 in 10.0 mi NNW 18.4 mph - N/A   Mostly Cloudy
10:53 AM 37.9 °F 29.2 °F 28.9 °F 70% 30.07 in 10.0 mi NNW 15.0 mph 23.0 mph N/A   Mostly Cloudy
11:53 AM 39.0 °F 30.6 °F 30.0 °F 70% 30.08 in 10.0 mi NNW 15.0 mph - N/A   Mostly Cloudy
12:53 PM 39.9 °F 31.1 °F 30.0 °F 68% 30.08 in 10.0 mi NW 17.3 mph - N/A   Mostly Cloudy
1:53 PM 41.0 °F 33.1 °F 30.0 °F 65% 30.08 in 10.0 mi NW 15.0 mph - N/A   Mostly Cloudy
2:13 PM 39.2 °F 31.2 °F 30.2 °F 70% 30.04 in 10.0 mi NNW 13.8 mph - N/A   Mostly Cloudy
2:53 PM 41.0 °F 32.5 °F 28.9 °F 62% 30.07 in 10.0 mi NW 17.3 mph - N/A   Mostly Cloudy
3:53 PM 41.0 °F 32.2 °F 28.9 °F 62% 30.08 in 10.0 mi NW 18.4 mph - N/A   Mostly Cloudy
4:53 PM 39.9 °F 31.4 °F 27.0 °F 60% 30.09 in 10.0 mi NNW 16.1 mph 23.0 mph N/A   Mostly Cloudy
5:53 PM 39.0 °F 30.6 °F 28.0 °F 65% 30.10 in 10.0 mi NNW 15.0 mph - N/A   Mostly Cloudy
6:53 PM 37.9 °F 30.9 °F 28.0 °F 68% 30.11 in 10.0 mi NNW 10.4 mph - N/A   Mostly Cloudy
7:49 PM 37.4 °F 30.3 °F 30.2 °F 75% 30.08 in 10.0 mi NNW 10.4 mph - 0.00 in Rain Light Rain
7:53 PM 37.9 °F 29.6 °F 28.9 °F 70% 30.12 in 10.0 mi NNW 13.8 mph - 0.00 in Rain Light Rain
8:03 PM 37.4 °F 29.8 °F 28.4 °F 70% 30.08 in 10.0 mi NNW 11.5 mph - 0.00 in   Overcast
8:29 PM 37.4 °F 28.9 °F 28.4 °F 70% 30.09 in 10.0 mi NNW 13.8 mph - 0.00 in   Overcast
8:53 PM 37.9 °F 29.6 °F 27.0 °F 65% 30.13 in 10.0 mi NW 13.8 mph - 0.00 in   Overcast
9:20 PM 37.4 °F 29.3 °F 28.4 °F 70% 30.09 in 10.0 mi NNW 12.7 mph - N/A   Overcast
9:53 PM 37.0 °F 29.8 °F 28.0 °F 70% 30.13 in 10.0 mi NNW 10.4 mph - N/A   Overcast
10:53 PM 37.4 °F 31.4 °F 28.4 °F 70% 30.13 in 10.0 mi NNW 8.1 mph - N/A   Overcast
11:53 PM 37.0 °F 31.6 °F 26.1 °F 65% 30.12 in 10.0 mi North 6.9 mph - N/A   Overcast